Greenville, MS

10:14 AM CDT on April 25, 2018 (GMT -0500)
Mid Delta Regional

Weather History for KGLH - October, 2011

Change the Weather History Date:

Monday, October 10, 2011

  Actual Average Record
Temperature  
Mean Temperature 70 °F 66 °F  
Max Temperature 83 °F 79 °F 95 °F (1928)
Min Temperature 56 °F 54 °F 35 °F (1915)
Degree Days  
Heating Degree Days 0 2  
Month to date heating degree days 15 15  
Since 1 July heating degree days 17 21  
Cooling Degree Days 5 4  
Month to date cooling degree days 31 44  
Year to date cooling degree days 2408 2124  
Growing Degree Days 20 (Base 50)    
Moisture  
Dew Point 59 °F    
Average Humidity 70    
Maximum Humidity 93    
Minimum Humidity 46    
Precipitation  
Precipitation 0.00 in 0.13 in 3.00 in (2004)
Month to date precipitation 0.00 1.45  
Year to date precipitation 21.82 39.09  
Sea Level Pressure  
Sea Level Pressure 30.03 in    
Wind  
Wind Speed 8 mph (NNE)    
Max Wind Speed 16 mph    
Max Gust Speed 21 mph    
Visibility 10 miles    
Events      
T = Trace of Precipitation, MM = Missing Value Source: NWS Daily Summary

Daily Weather History Graph

Daily Weather History Graph

Search for Another Location

Airport or City:

Astronomy

Oct. 10, 2011 Rise Set
Actual Time 7:04 AM CDT 6:36 PM CDT
Civil Twilight 6:39 AM CDT 7:01 PM CDT
Nautical Twilight 6:10 AM CDT 7:30 PM CDT
Astronomical Twilight 5:42 AM CDT 7:59 PM CDT
Moon 5:40 PM CDT (10/10) 5:47 AM CDT (10/10)
Length of Visible Light 12h 22m
Length of Day
11h 32m
Waxing Gibbous, 98% of the Moon is Illuminated
Oct 10
Waxing Gibbous
Oct 11
Full
Oct 19
Last Quarter
Oct 26
New
Nov 2
First Quarter

Hourly Weather History & Observations

Time (CDT) Temp. Heat Index Dew Point Humidity Pressure Visibility Wind Dir Wind Speed Gust Speed Precip Events Conditions
12:53 AM 66.9 °F - 59.0 °F 76% 30.08 in 10.0 mi ENE 4.6 mph - N/A   Clear
1:53 AM 64.9 °F - 57.9 °F 78% 30.07 in 10.0 mi NNE 3.5 mph - N/A   Clear
2:53 AM 63.0 °F - 57.9 °F 84% 30.08 in 10.0 mi North 3.5 mph - N/A   Clear
3:53 AM 62.1 °F - 57.0 °F 84% 30.07 in 10.0 mi NNE 4.6 mph - N/A   Clear
4:53 AM 60.8 °F - 57.2 °F 88% 30.05 in 10.0 mi North 5.8 mph - N/A   Clear
5:53 AM 59.0 °F - 55.9 °F 90% 30.08 in 10.0 mi North 6.9 mph - N/A   Clear
6:53 AM 57.0 °F - 55.0 °F 93% 30.08 in 10.0 mi North 6.9 mph - N/A   Clear
7:53 AM 60.8 °F - 57.2 °F 88% 30.07 in 10.0 mi North 6.9 mph - N/A   Clear
8:53 AM 66.9 °F - 59.0 °F 76% 30.09 in 10.0 mi NNE 9.2 mph - N/A   Clear
9:53 AM 71.6 °F - 59.0 °F 64% 30.08 in 10.0 mi ENE 8.1 mph - N/A   Mostly Cloudy
10:53 AM 75.0 °F - 59.0 °F 57% 30.09 in 10.0 mi Variable 3.5 mph - N/A   Clear
11:53 AM 77.0 °F - 60.1 °F 56% 30.07 in 10.0 mi North 4.6 mph - N/A   Partly Cloudy
12:53 PM 80.6 °F 81.5 °F 60.8 °F 51% 30.02 in 10.0 mi North 10.4 mph - N/A   Clear
1:53 PM 82.0 °F 82.1 °F 59.0 °F 45% 30.01 in 10.0 mi NNE 9.2 mph - N/A   Scattered Clouds
2:53 PM 81.0 °F 81.3 °F 59.0 °F 47% 29.99 in 10.0 mi NNE 15.0 mph 20.7 mph N/A   Overcast
3:53 PM 82.0 °F 82.1 °F 59.0 °F 45% 29.98 in 10.0 mi NNE 15.0 mph - N/A   Mostly Cloudy
4:53 PM 81.0 °F 81.6 °F 60.1 °F 49% 29.96 in 10.0 mi NNE 12.7 mph - N/A   Overcast
5:53 PM 80.1 °F 81.1 °F 61.0 °F 52% 29.97 in 10.0 mi North 10.4 mph - N/A   Partly Cloudy
6:53 PM 78.8 °F - 60.8 °F 54% 29.95 in 10.0 mi NNE 8.1 mph - N/A   Overcast
7:53 PM 73.9 °F - 61.0 °F 64% 29.97 in 10.0 mi NNE 6.9 mph - N/A   Partly Cloudy
8:53 PM 73.0 °F - 61.0 °F 66% 29.98 in 10.0 mi NNE 6.9 mph - N/A   Clear
9:53 PM 71.1 °F - 62.1 °F 73% 29.98 in 10.0 mi NNE 6.9 mph - N/A   Clear
10:53 PM 70.0 °F - 62.1 °F 76% 29.98 in 10.0 mi NE 8.1 mph - N/A   Clear
11:53 PM 70.0 °F - 62.1 °F 76% 29.96 in 10.0 mi NNE 6.9 mph - N/A   Clear